Location: Edinburgh
(55.9500°N, 3.1600°W)
Time: 07:53:03
(UTC+01:00)

STRAND 1 - Visible Passes

Search period start: 21 May 2024 00:00
Search period end: 31 May 2024 00:00
Orbit: 765 x 777 km, 98.4° (Epoch: 20 May)

Date Brightness Start Highest point End Pass type
(mag) Time Alt. Az. Time Alt. Az. Time Alt. Az.
21 May ? 22:22:14 10° NNW 22:24:48 14° NW 22:27:23 10° WNW visible
26 May ? 22:47:07 10° NNW 22:48:01 10° NW 22:48:56 10° NW visible
29 May ? 22:40:58 10° NNW 22:42:28 11° NW 22:43:57 10° WNW visible
